Regional Weather Roundup
Issued by NWS

Home | Current Version | Previous Version | Text Only | Print | Product List | Glossary On
Versions: 1 2 3 4 5 6 7 8 9 10 11 12 13 14 15 16 17 18 19 20 21 22 23 24 25 26 27 28 29 30 31 32 33 34 35 36 37 38 39 40 41 42 43 44 45 46 47 48 49 50
165
ASUS43 KDTX 240710
RWRMI
MICHIGAN HOURLY REGIONAL WEATHER ROUNDUP
NATIONAL WEATHER SERVICE DETROIT/PONTIAC MI
300 AM EDT TUE APR 24 2018

NOTE: "FAIR" INDICATES FEW OR NO CLOUDS BELOW 12,000 FEET WITH NO
SIGNIFICANT WEATHER AND/OR OBSTRUCTION TO VISIBILITY.

MIZ047>049-052>055-059>063-066>070-074>076-081>083-240800-
SOUTHEAST LOWER MICHIGAN

CITY           SKY/WX    TMP DP  RH WIND       PRES   REMARKS
ADRIAN         CLOUDY    53  47  79 E5        30.12F
ALMA           CLOUDY    55  49  80 CALM      30.14S
ANN ARBOR      CLOUDY    53  46  77 CALM      30.13F
BAD AXE        FAIR      51  39  64 S5        30.15S
CARO           FAIR      55  44  64 SW7       30.14S
DETROIT CITY   MOCLDY    55  43  63 SE3       30.14F
DETROIT        CLOUDY    55  44  66 NE3       30.14F
FLINT          CLOUDY    55  44  66 SW5       30.14F
GROSSE ILE     CLOUDY    51  46  82 E3        30.13F
HILLSDALE      CLOUDY    50  45  81 E6        30.10F
HOWELL         CLOUDY    54  44  68 CALM      30.14F

CITY           SKY/WX    TMP DP  RH WIND       PRES   REMARKS
JACKSON        CLOUDY    54  47  77 E5        30.11F
LAMBERTVILLE   CLOUDY    57  44  61 E5        30.11F
LANSING        CLOUDY    54  46  74 S8        30.14F
LAPEER         CLOUDY    54  44  70 SW3       30.15S
MASON          CLOUDY    55  44  68 CALM      30.13F
MONROE         CLOUDY    53  44  70 E3        30.12F
PONTIAC        CLOUDY    56  44  64 CALM      30.13F
PORT HOPE        N/A     53  39  59 VRB5      30.12S
PORT HURON     CLOUDY    48  43  81 CALM      30.15F
TRI CITIES     FAIR      47  41  80 CALM      30.14F
MIDLAND        FAIR      46  39  76 CALM      30.13F
TROY           CLOUDY    58  43  57 CALM      30.16F
SAGINAW HB     FAIR      54  45  71 S5        30.13F
$$
MIZ043>046-050>051-056>058-064>065-071>073-077>080-240800-
SOUTHWEST LOWER MICHIGAN

CITY           SKY/WX    TMP DP  RH WIND       PRES   REMARKS
BATTLE CREEK   CLOUDY    53  46  77 E7        30.11F
BENTON HARBOR  MOCLDY    55  47  74 E9        30.08F
BIG RAPIDS     FAIR      49  37  62 CALM      30.11F
COLDWATER      CLOUDY    51  48  89 E6        30.10F
FREMONT        MOCLDY    57  43  59 SE3       30.10S
HOLLAND        FAIR      55  46  71 S7        30.10F
GRAND RAPIDS   CLOUDY    55  46  71 SE6       30.11S
IONIA          CLOUDY    54  45  71 S6        30.12S
KALAMAZOO      CLOUDY    54  46  74 SE5       30.10F
LUDINGTON      FAIR      43  35  72 CALM      30.10S
MARSHALL       CLOUDY    51  49  94 CALM      30.11F
MOUNT PLEASANT FAIR      51  41  69 CALM      30.12S
MUSKEGON       MOCLDY    54  45  71 CALM      30.10F
SOUTH HAVEN    CLOUDY    56  47  71 SE6       30.08F
$$
MIZ016>042-240800-
NORTHERN LOWER MICHIGAN

CITY           SKY/WX    TMP DP  RH WIND       PRES   REMARKS
ALPENA         FAIR      35  30  82 CALM      30.14F
BEAVER ISLAND  FAIR      34  28  77 NW3       30.12F
CADILLAC       FAIR      39  30  71 CALM      30.11F
CHARLEVOIX     FAIR      37  28  72 CALM      30.14F
FRANKFORT      FAIR      39  30  69 CALM      30.11S
GAYLORD        FAIR      42  29  59 CALM      30.12F
HARBOR SPRINGS FAIR      37  30  77 NE6       30.13S WCI  32
HOUGHTON LAKE  FAIR      43  35  73 E3        30.13S
MANISTEE       FAIR      42  30  62 W3        30.10S
OSCODA         FAIR      37  28  68 CALM      30.13F
PELLSTON       FAIR      32  27  81 CALM      30.13F
ROGERS CITY    FAIR      33  28  85 CALM      30.15S
TRAVERSE CITY  FAIR      38  31  76 CALM      30.11S
$$
MIZ007>008-015-240800-
EASTERN UPPER MICHIGAN

CITY           SKY/WX    TMP DP  RH WIND       PRES   REMARKS
KINROSS        FAIR      37  24  59 CALM      30.14F
MACKINAC ISLAN FAIR      40  28  63 SE8       30.13F WCI  34
NEWBERRY       FAIR      38  25  61 CALM      30.12F
S. S. MARIE    FAIR      41  25  53 NE3       30.14F
MUNISING         N/A     36  28  73 S5        30.11F WCI  32
$$
MIZ004>006-011>014-085-240800-
CENTRAL UPPER MICHIGAN

CITY           SKY/WX    TMP DP  RH WIND       PRES   REMARKS
MANISTIQUE     FAIR      33  28  81 CALM      30.12F
ESCANABA       FAIR      29  26  89 CALM      30.14S
MENOMINEE      FAIR      35  29  78 NW3       30.13F
SAWYER-GWINN   FAIR      36  23  58 CALM      30.12
$$
MIZ001>003-009>011-084-240800-
WESTERN UPPER MICHIGAN

CITY           SKY/WX    TMP DP  RH WIND       PRES   REMARKS
IRON MOUNTAIN  FAIR      35  27  72 CALM      30.11F
HOUGHTON       FAIR      40  28  62 W5        30.10S
COPPER HARBOR    N/A     43  26  51 W5        30.10R
IRONWOOD       FAIR      35  28  75 CALM      30.13R
$$

ABBREVIATIONS USED IN REMARKS
   TC - TEMPERATURE IN CELSIUS
  WCI - WIND CHILL INDEX
   HX - HEAT INDEX
  VSB - VISIBILITY





USA.gov is the U.S. government's official web portal to all federal, state and local government web resources and services.